Theta_e
320 326 322 326 328 325 322 320 324 326 322 323 325 323 322 323 319 317 319 316 313 316 321 321 319 318 317 316 314 313 316 315 314 316 317 317 318 318 318 318 318 318 318 318 317 318 318 318 318 318 318 318 318 317 317 317 316 316 316 316 316 315 315 315 315 315 315 315 315 315 315 314 314 313 313 313 313 314 314 314 315 316 315 317 322 325
323 328 327 330 329 322 321 321 320 320 321 324 326 325 324 323 318 316 319 317 314 316 321 322 319 317 316 315 313 312 314 314 314 315 315 317 317 317 318 318 318 318 318 318 318 318 318 318 318 318 318 318 318 318 317 318 317 317 316 316 317 316 316 316 315 315 314 315 315 314 315 314 314 314 313 313 313 313 313 314 315 315 316 316 318 322
322 326 329 326 320 318 320 322 321 322 325 328 327 326 327 325 318 317 319 318 316 316 321 323 319 317 316 315 313 312 313 315 315 316 316 317 317 317 318 317 318 317 318 318 317 318 317 317 318 318 318 318 318 318 317 318 317 317 317 317 318 317 317 317 316 315 315 315 315 314 314 314 314 313 313 313 313 313 313 313 315 315 315 315 316 318
321 326 325 318 315 319 321 321 324 324 324 329 327 323 326 325 320 320 319 318 317 316 318 321 320 318 316 317 317 313 313 314 315 316 315 316 316 316 317 316 317 317 317 318 317 318 318 317 318 318 318 318 318 318 317 317 317 317 318 318 318 318 317 317 316 316 315 314 314 314 314 313 313 313 313 314 313 313 313 313 314 314 314 314 314 314
324 321 316 314 318 323 321 321 326 324 320 325 328 327 327 325 320 320 321 319 320 319 319 320 321 322 323 325 323 316 313 314 316 316 315 316 316 316 317 316 317 317 316 318 318 318 318 318 318 318 318 318 318 318 317 317 317 317 318 317 317 317 317 317 316 316 315 314 314 314 314 314 313 313 313 314 314 313 313 313 313 313 313 313 313 313
321 316 313 317 319 322 321 322 327 326 320 319 323 325 324 323 321 321 323 323 323 323 321 319 320 328 330 325 320 315 313 315 314 313 314 317 318 316 317 317 317 317 317 318 318 318 319 318 318 318 319 319 318 318 318 318 317 317 317 316 316 316 316 317 316 316 315 314 314 314 314 314 314 314 313 314 314 313 313 313 313 313 313 312 312 312
318 315 317 321 321 323 322 320 322 325 322 317 318 321 323 326 325 323 323 321 322 323 319 318 321 324 323 316 316 316 316 319 316 313 314 316 319 319 318 319 318 318 318 318 318 318 318 319 319 319 319 319 319 319 319 318 317 317 316 316 316 316 316 316 316 316 315 315 315 314 314 314 314 314 314 314 314 313 313 313 313 313 313 312 312 312
317 317 319 324 328 328 323 319 319 322 322 320 320 323 325 326 323 324 325 321 324 324 323 326 323 320 318 314 316 317 316 320 320 317 315 314 318 319 318 319 319 319 318 318 318 318 318 319 319 320 320 320 320 319 319 318 317 317 316 316 316 316 316 316 316 316 316 315 315 315 315 314 314 314 314 314 313 313 313 313 313 313 312 312 312 312
316 321 322 325 329 328 324 322 322 323 323 322 322 324 326 326 326 330 330 325 324 321 325 330 320 317 324 322 316 317 317 318 320 321 318 313 316 317 318 319 318 318 319 319 319 319 318 318 318 319 319 319 319 319 318 317 317 316 316 316 316 316 316 316 316 316 316 316 315 315 315 315 315 314 314 314 313 313 313 313 313 312 312 312 312 311
315 318 320 323 327 325 322 320 322 326 322 318 320 326 330 331 331 331 329 327 322 320 327 332 321 315 324 327 317 314 318 319 319 321 317 313 316 318 318 318 317 319 319 319 318 318 318 318 317 318 318 318 317 317 317 316 316 316 316 316 316 317 317 317 317 316 316 316 315 315 315 315 315 315 314 314 313 313 313 313 313 312 312 312 311 311
314 313 314 318 320 319 319 317 318 321 317 317 324 330 330 331 333 333 332 327 318 321 330 331 324 315 318 328 324 315 318 321 319 319 317 316 319 319 319 319 319 319 318 317 317 317 318 318 318 318 318 318 317 317 317 317 317 317 316 317 317 317 317 317 317 317 317 316 316 316 316 316 315 315 314 314 314 314 313 313 313 313 312 312 312 311
317 317 314 315 314 314 317 317 316 319 319 322 330 330 324 327 333 331 328 322 316 323 330 326 323 317 316 327 328 318 318 321 318 318 319 319 319 318 319 319 318 318 318 317 318 318 319 319 319 319 319 319 319 318 318 318 318 318 318 318 318 318 318 318 318 318 318 317 317 317 317 316 316 316 315 315 315 314 314 314 313 312 312 312 311 311
322 323 316 314 314 314 320 321 319 323 327 325 325 325 320 319 325 326 325 324 322 323 323 321 321 319 317 321 322 319 318 318 317 315 317 319 318 318 318 317 317 318 317 317 318 318 319 319 319 319 319 319 319 318 318 318 318 318 318 318 318 318 318 318 318 318 318 317 317 317 317 317 316 316 316 316 316 315 315 314 313 313 312 312 312 311
322 323 317 315 316 315 318 321 318 321 326 322 319 323 322 318 319 322 322 321 323 323 319 318 319 321 321 319 318 319 317 316 315 313 317 319 318 318 318 317 318 317 317 318 317 318 318 319 319 318 319 318 318 318 317 317 318 318 318 318 318 318 318 318 318 318 318 318 317 317 317 317 316 317 317 316 316 316 315 315 314 314 313 313 312 312
320 321 320 317 316 317 317 318 319 322 321 320 321 321 321 323 323 323 322 320 324 325 320 316 318 324 325 318 316 316 313 315 316 314 315 316 316 318 317 316 316 316 317 317 317 318 318 318 318 318 318 318 317 317 316 316 317 318 318 318 318 318 318 318 318 318 318 318 317 317 317 317 317 317 316 316 316 316 316 315 315 314 314 313 313 312
316 320 323 316 314 317 317 315 316 320 319 318 321 320 318 323 325 323 324 324 324 322 319 318 323 326 322 317 315 314 313 313 312 312 313 314 316 316 315 315 316 316 317 316 316 317 317 318 318 318 318 318 317 317 317 316 317 318 319 318 318 318 318 318 318 318 317 317 317 317 317 317 316 316 316 316 316 316 315 315 315 314 314 313 313 312
316 320 320 314 313 314 315 315 313 315 319 318 318 320 322 323 323 322 321 318 317 317 317 319 321 321 317 315 316 314 313 315 313 312 312 313 314 314 315 316 315 316 316 316 317 317 317 318 318 318 318 317 317 317 316 316 317 318 318 318 318 318 317 317 318 317 318 317 317 317 317 317 317 317 317 317 316 316 315 315 314 314 314 313 313 312
322 322 318 315 316 313 312 314 312 312 317 321 321 319 319 319 322 326 323 318 316 316 318 318 316 315 314 316 319 316 314 317 318 315 312 313 313 313 316 316 315 317 316 317 317 317 317 317 317 317 317 317 317 316 316 317 317 318 318 318 318 317 318 318 318 318 317 317 317 317 317 317 317 317 317 317 317 316 315 315 315 314 314 313 313 312
320 319 316 314 316 316 315 316 316 314 315 319 321 318 320 323 324 324 321 319 318 316 319 320 315 314 314 315 317 315 314 316 318 318 315 315 314 314 316 315 314 316 316 316 316 316 317 316 316 317 316 317 317 317 318 317 318 318 318 318 317 317 318 318 318 318 317 317 317 317 317 317 317 317 317 317 317 316 316 316 315 314 314 313 312 312
318 315 315 315 315 316 317 317 319 319 316 317 316 315 321 327 326 324 320 320 320 316 317 318 314 313 315 316 315 314 316 315 315 319 318 314 314 314 315 315 315 316 315 315 315 315 315 315 316 316 316 317 317 317 318 318 318 318 317 318 317 317 318 317 317 317 317 317 317 317 317 317 317 317 317 317 317 317 317 316 315 314 314 313 312 312
315 313 315 316 315 315 318 318 318 319 318 319 318 318 319 319 320 322 321 319 320 319 318 315 313 314 315 316 316 314 316 316 316 319 317 312 313 314 314 315 315 315 315 315 315 315 315 314 315 316 316 317 316 317 317 317 318 318 317 318 318 318 318 317 317 317 317 317 317 317 317 317 317 317 316 317 317 317 317 316 315 314 313 313 313 312
314 316 320 319 317 318 322 320 316 315 317 318 318 319 319 318 319 320 319 319 319 320 323 318 313 314 313 315 317 316 317 317 314 315 314 312 314 315 315 315 315 315 315 315 315 315 315 315 315 316 316 316 315 316 316 317 317 317 317 318 318 317 317 317 317 317 317 317 317 317 317 317 317 317 317 317 317 317 317 316 315 314 313 312 312 312
314 319 323 322 319 318 319 317 312 313 316 317 317 317 316 317 320 319 320 322 320 320 323 320 315 314 313 316 319 315 314 314 312 313 313 314 315 315 315 315 315 315 315 315 315 315 315 315 315 316 316 315 315 315 315 316 317 317 318 318 317 317 317 317 317 317 317 317 317 317 317 317 317 317 317 317 317 317 316 316 316 315 313 312 312 312
314 318 319 318 318 318 319 319 315 316 317 317 318 318 316 319 322 323 324 325 323 322 320 318 317 315 314 316 315 311 312 312 313 315 314 314 315 315 315 315 315 315 315 315 316 315 315 316 315 316 315 315 315 314 315 315 315 316 317 318 317 317 317 317 317 317 317 317 317 317 317 317 317 317 317 317 317 317 316 316 316 315 314 312 311 311
316 320 318 317 318 319 321 321 319 319 319 318 322 322 318 320 321 321 321 319 319 324 323 319 317 315 314 317 315 314 315 313 312 314 314 314 315 314 315 315 314 315 315 315 316 316 316 316 315 315 315 315 315 315 315 315 315 315 316 317 318 317 317 317 317 317 317 317 317 317 317 317 317 317 317 317 316 316 316 316 316 315 314 312 311 310
320 322 319 317 316 316 320 322 321 322 320 319 323 322 318 319 319 318 320 317 317 322 322 318 316 314 313 316 316 316 315 313 312 313 314 314 314 314 315 315 315 315 315 315 316 315 316 316 315 315 315 315 315 315 315 315 315 315 315 316 317 317 317 317 317 317 317 317 317 317 317 317 317 317 316 316 316 316 316 316 315 315 314 312 311 310
322 320 317 317 317 318 322 322 320 320 319 318 320 319 317 319 318 319 322 320 316 317 317 315 315 315 314 314 314 314 313 313 313 313 313 314 314 314 314 314 314 314 314 315 315 315 316 316 315 315 315 315 315 316 315 315 316 316 315 315 316 317 317 316 317 317 317 317 317 317 317 317 316 316 316 316 316 316 316 316 315 315 314 312 310 309
321 317 317 318 317 321 323 318 315 317 318 318 318 317 317 317 317 318 319 318 316 316 316 315 315 315 314 313 313 313 313 313 312 312 313 314 314 314 314 314 314 314 315 315 315 315 316 316 316 316 316 316 316 316 316 315 316 316 315 315 315 316 317 316 317 317 316 316 316 316 317 316 316 316 316 316 316 316 316 316 315 315 314 312 311 310
323 318 317 317 315 318 319 315 315 316 316 316 317 316 317 317 318 318 318 317 318 318 316 315 316 316 315 313 313 313 312 313 312 312 313 313 313 314 314 314 314 314 315 315 315 315 315 315 316 315 315 316 316 316 316 316 316 315 315 315 315 316 316 316 316 316 316 316 316 316 317 316 316 316 315 315 315 316 316 315 315 315 314 312 311 310
320 319 318 317 316 317 317 316 316 316 315 316 316 316 317 317 318 318 317 316 316 317 317 316 317 316 314 313 314 313 312 313 313 313 313 313 313 313 313 314 314 314 314 314 314 315 315 315 315 315 315 315 315 315 315 315 315 315 315 315 315 315 315 315 315 315 315 315 316 316 316 316 316 315 315 315 315 315 315 315 315 314 313 312 311 309
316 318 317 316 317 317 317 316 316 316 316 316 316 316 316 316 317 316 315 315 315 316 316 315 316 315 314 313 313 313 313 313 313 313 313 313 313 313 313 313 314 314 314 314 314 314 314 315 315 315 315 315 315 315 315 315 315 315 315 315 315 315 315 315 315 315 315 315 315 315 316 316 316 315 315 315 315 315 315 315 314 314 313 312 310 309
315 316 315 315 317 317 316 316 315 314 315 315 315 316 315 316 316 315 315 315 315 315 316 316 316 315 314 313 313 313 313 312 312 313 313 313 313 313 313 313 314 314 314 314 314 314 314 315 315 315 315 314 314 314 314 314 314 314 314 314 314 315 315 315 315 315 315 315 315 315 315 315 315 315 315 315 315 315 314 314 314 313 313 311 310 308
315 316 315 315 317 316 316 317 316 314 316 316 316 315 315 314 315 315 315 315 314 314 315 315 315 315 314 314 314 314 312 312 313 313 313 313 313 312 313 314 314 314 314 314 314 314 314 314 314 314 314 314 314 314 314 314 314 314 314 314 314 314 314 314 314 315 315 315 315 315 315 315 315 315 314 314 314 314 314 313 313 313 312 310 309 307
313 315 315 315 316 316 316 316 316 315 317 317 315 316 315 314 315 315 315 315 314 314 314 314 314 314 314 314 314 314 313 313 313 313 313 313 312 313 313 313 313 313 312 313 313 313 313 313 313 313 313 313 313 313 314 314 314 314 314 314 314 314 314 314 314 315 315 315 315 315 315 315 314 313 314 314 314 314 313 313 312 312 311 309 307 307
312 314 315 314 315 317 315 315 316 317 317 316 316 317 316 314 314 315 315 314 314 314 314 314 314 314 313 313 313 313 312 312 313 313 313 312 312 312 312 311 311 311 311 312 312 312 313 312 313 313 313 313 313 313 313 313 313 313 313 314 314 314 314 314 314 314 315 315 315 315 315 315 313 313 313 313 313 313 313 312 312 311 309 308 306 306
313 312 313 314 314 315 315 315 316 317 315 315 317 316 313 312 314 314 314 314 314 314 315 314 313 313 313 312 312 311 311 311 312 312 312 312 312 311 310 310 310 311 311 311 311 311 312 312 312 313 312 313 313 313 313 313 313 313 313 314 314 313 313 313 313 314 314 314 315 314 314 314 313 313 313 313 313 312 312 311 311 310 308 307 305 305
312 311 311 313 313 314 315 315 314 315 314 314 315 313 312 313 316 315 315 315 312 311 311 313 314 312 310 309 309 309 309 311 312 312 312 312 311 310 309 309 310 310 310 310 310 311 311 312 312 312 313 313 313 313 313 313 313 314 313 314 314 313 312 312 313 313 313 313 313 313 313 313 313 312 312 312 312 311 311 311 310 308 307 305 305 304
311 312 313 313 313 313 314 314 313 314 314 313 312 312 311 312 313 314 315 315 310 305 306 310 311 309 306 307 308 307 308 313 315 312 309 309 308 308 308 309 309 310 310 310 310 310 311 311 312 312 313 313 313 313 313 313 313 313 313 314 314 313 312 312 313 313 312 312 312 312 312 312 311 311 311 311 311 310 310 310 308 307 306 304 304 303
311 312 312 312 312 313 313 313 313 313 313 313 313 312 310 310 310 311 315 315 308 303 304 306 306 305 305 306 306 306 309 313 312 308 306 306 306 307 308 309 309 310 310 310 310 310 310 310 310 311 312 312 313 313 313 313 313 313 313 313 313 313 313 313 313 312 311 311 311 311 311 311 311 311 311 310 310 310 309 309 307 306 304 303 303 302
311 311 312 311 312 312 312 313 313 312 312 314 314 311 309 309 310 312 316 314 306 302 304 304 304 304 306 306 306 306 308 309 308 306 304 305 305 306 308 308 309 309 310 309 309 309 309 310 310 310 311 311 311 312 312 313 313 312 312 313 313 313 313 313 312 311 311 311 310 310 310 310 310 311 310 310 310 309 309 307 306 305 303 302 302 301
311 311 311 311 312 311 311 312 311 311 312 312 312 309 308 309 311 312 313 310 304 302 303 304 304 305 306 306 306 306 306 306 305 304 304 303 304 305 306 308 308 309 309 309 309 308 309 309 309 310 310 310 310 311 311 312 312 312 312 312 313 313 313 313 312 311 311 310 310 310 309 309 309 309 309 309 308 307 306 305 304 302 301 301 301 300
311 311 311 312 311 310 310 311 310 311 310 309 309 308 308 310 312 310 308 305 303 303 303 303 304 305 306 306 305 305 305 304 303 303 303 303 303 303 304 306 307 308 308 309 309 309 308 309 309 309 309 309 309 310 310 310 311 311 311 311 312 312 312 312 312 311 311 310 309 309 309 308 308 307 307 307 306 305 304 303 301 300 300 300 299 299
310 310 311 311 311 310 310 310 311 312 309 306 308 310 309 311 311 306 304 305 304 303 303 303 303 304 305 305 304 304 304 302 302 302 302 303 303 303 303 304 305 307 308 308 309 309 309 309 309 309 309 309 309 309 309 309 310 310 310 310 311 311 311 311 311 310 309 309 308 308 307 307 306 305 305 305 304 303 302 301 300 300 299 298 298 298
309 310 311 311 311 310 311 311 311 310 307 305 308 310 308 307 307 305 304 305 303 302 303 303 303 303 304 304 304 303 302 301 301 302 302 303 303 303 304 304 304 306 307 308 308 308 308 309 309 309 309 309 309 309 309 309 309 309 309 309 308 308 309 309 309 309 308 307 307 306 306 305 305 304 303 302 302 301 301 300 300 299 299 298 297 298
308 309 310 311 312 311 310 309 308 306 304 304 305 305 304 304 305 305 305 304 303 302 302 302 302 303 303 304 304 303 302 301 301 302 303 303 304 304 305 305 305 305 306 307 308 308 308 308 309 309 309 309 309 309 309 309 308 308 308 307 306 306 307 307 307 307 306 305 305 305 304 304 303 302 301 300 300 300 300 300 299 299 298 297 297 298
304 304 305 308 311 311 307 305 306 305 303 303 302 301 301 302 304 305 305 304 303 302 302 302 302 303 303 303 303 302 301 301 301 302 302 303 303 303 304 305 305 306 306 307 307 307 307 307 308 308 308 308 308 308 308 308 308 307 306 306 305 305 305 305 304 304 304 304 303 303 303 302 301 301 300 299 298 298 298 298 298 298 298 297 297 297
302 302 305 307 310 310 307 305 305 304 302 302 301 301 301 302 303 303 303 302 302 302 302 302 302 302 302 302 302 302 302 301 301 301 301 302 302 302 303 303 304 305 306 306 306 306 306 307 307 308 308 308 308 307 307 307 307 306 305 304 304 304 303 303 302 302 302 302 302 301 301 301 300 299 299 298 298 297 297 297 297 297 298 297 297 297
303 303 306 308 308 308 305 303 301 300 300 301 301 301 301 300 300 300 300 301 302 302 302 302 302 301 301 301 302 302 301 301 301 300 300 301 302 302 302 302 303 304 305 305 306 306 306 306 306 307 307 308 307 307 306 306 305 305 303 302 302 302 301 301 301 300 300 300 300 300 300 299 299 298 298 298 297 297 296 296 296 297 297 297 297 297
302 303 305 306 306 305 303 301 300 300 301 301 300 300 300 299 299 299 300 301 302 301 301 301 301 301 301 301 301 300 300 300 300 300 300 301 301 302 302 302 303 303 304 305 305 305 305 305 306 306 307 307 307 307 306 305 303 303 302 301 300 300 300 300 299 299 299 299 298 298 298 298 297 297 297 297 296 296 296 296 296 297 297 296 296 296
301 303 304 303 303 304 303 301 301 302 302 301 299 299 299 299 299 300 300 300 300 300 300 300 300 300 301 301 300 299 299 299 299 299 299 300 301 301 302 302 302 303 303 304 304 305 305 305 305 305 306 306 306 307 307 305 303 301 300 299 299 299 299 298 298 298 298 297 297 297 297 297 297 296 296 296 296 296 295 295 295 295 296 296 296 295
300 303 303 302 303 303 302 300 299 299 300 299 299 299 299 299 300 300 299 299 299 299 299 299 299 299 299 299 298 298 298 298 298 298 298 299 300 301 301 302 302 302 303 303 303 304 305 305 305 305 305 305 305 306 306 306 303 300 299 298 298 298 297 297 297 297 297 296 296 296 296 296 297 296 296 296 296 297 297 296 295 295 294 294 294 294
Wind_Speed
4 4 2 4 5 6 7 7 7 5 6 6 5 3 2 3 1 3 2 4 2 2 5 6 6 9 9 9 14 21 20 16 20 23 26 28 27 28 27 28 30 32 33 31 29 28 27 26 25 23 22 21 22 23 24 26 27 27 27 28 27 27 28 29 30 31 32 33 34 35 35 35 34 34 33 33 33 32 32 32 32 33 32 33 34 35
3 3 4 7 7 8 6 6 6 4 5 5 5 5 2 1 1 2 2 5 3 2 4 4 5 11 10 9 14 19 15 14 20 22 25 29 28 29 29 31 33 33 33 31 29 29 28 27 26 25 25 24 24 24 25 26 26 26 26 26 24 25 27 29 30 32 33 34 35 35 34 33 33 33 33 33 33 33 33 33 33 33 33 32 33 35
3 2 7 9 7 5 2 4 8 6 6 5 4 4 2 1 2 2 3 4 2 2 4 5 6 11 11 9 14 19 17 19 27 27 28 30 28 30 32 34 35 34 33 32 30 29 28 28 27 27 27 26 27 26 25 26 26 26 26 24 23 24 26 26 28 31 32 33 34 35 35 33 32 32 32 33 33 33 34 34 34 34 34 34 33 34
2 5 8 7 6 7 4 4 8 6 4 4 4 5 1 3 1 2 4 4 1 1 2 4 6 10 10 6 11 19 22 23 28 29 30 31 30 32 34 35 35 34 34 32 30 28 27 28 28 28 28 27 27 27 27 28 28 28 28 27 26 26 26 27 28 30 31 33 33 34 35 35 34 33 33 33 34 35 36 36 36 36 36 35 35 36
4 6 4 1 4 7 5 3 6 5 1 1 3 6 3 2 2 2 2 3 3 3 3 4 6 7 6 5 6 11 11 14 19 20 24 28 28 30 33 33 33 32 31 29 26 25 25 27 27 27 27 27 28 28 27 28 29 29 29 30 30 29 30 30 30 31 32 33 34 35 36 36 37 37 36 36 37 37 37 37 36 37 37 36 37 36
5 4 1 2 3 5 6 3 3 6 2 3 1 5 6 5 5 2 3 5 5 5 4 4 4 6 5 6 7 8 6 8 11 10 15 22 22 25 29 30 29 29 27 25 23 22 22 24 24 24 25 26 27 26 25 25 26 28 28 29 30 31 31 32 32 32 33 34 35 36 37 38 39 39 40 39 38 38 37 36 35 36 36 36 37 37
2 1 2 4 4 5 6 2 3 5 5 1 3 3 5 7 7 4 3 4 1 3 3 4 3 5 8 7 8 6 6 9 10 8 11 17 19 23 28 27 25 25 24 23 23 21 21 21 22 23 24 26 25 23 22 23 24 25 26 26 28 29 30 31 32 33 34 35 35 36 37 38 39 39 39 38 37 37 36 35 35 35 36 36 36 36
1 2 4 5 6 6 5 2 3 5 7 2 4 3 5 7 6 5 6 3 2 2 4 4 4 2 7 7 4 2 6 9 10 10 12 17 21 24 26 26 23 21 19 19 19 19 19 20 21 22 23 23 22 21 22 23 23 23 23 23 24 25 27 29 30 32 34 35 35 36 37 37 38 38 37 37 37 36 36 36 36 36 36 36 35 35
0 4 3 5 6 3 3 3 3 5 6 4 5 4 5 6 6 5 7 3 1 2 5 5 2 2 7 7 3 4 5 8 10 10 11 17 22 23 24 23 19 15 13 12 13 13 15 18 20 21 21 20 20 20 21 22 22 22 22 22 22 22 23 25 26 29 31 32 33 34 35 36 36 35 35 35 36 37 37 37 37 37 37 36 35 34
1 3 4 5 5 3 4 2 2 4 4 4 3 5 6 5 5 5 5 3 3 2 4 6 2 2 6 8 5 4 3 7 9 9 8 10 13 13 13 13 11 8 8 8 7 8 11 13 15 17 17 17 16 17 18 18 19 19 20 21 21 21 21 21 22 24 26 27 29 30 31 32 33 33 33 34 35 37 37 38 38 38 38 37 35 34
2 1 0 3 3 5 5 2 3 3 5 6 6 6 7 6 5 4 3 4 3 3 6 8 6 5 4 7 5 3 4 6 6 6 5 3 1 1 2 3 5 5 6 5 4 6 9 9 10 10 10 10 10 10 11 12 13 14 16 17 18 18 19 20 20 21 22 23 24 25 26 27 28 29 31 32 33 34 35 37 37 36 37 37 36 35
5 2 1 1 2 5 7 5 6 6 5 7 5 5 4 4 5 5 5 4 1 5 7 6 4 5 5 6 5 5 6 6 6 5 5 3 2 6 6 4 4 4 5 4 5 7 9 9 8 7 7 7 7 6 6 7 9 11 13 14 15 16 16 17 18 19 20 20 21 21 22 23 24 25 27 28 29 30 32 33 34 35 35 36 36 36
3 2 2 2 1 4 6 5 5 6 5 5 5 6 4 2 3 3 3 0 3 6 5 4 1 3 7 7 7 10 11 8 6 4 4 4 2 5 5 2 1 3 6 7 7 9 10 10 9 8 8 8 7 6 6 8 11 12 14 15 15 15 15 16 16 17 17 17 17 17 18 19 20 21 22 24 25 26 28 29 31 32 33 34 34 34
2 6 2 2 2 4 6 5 2 1 0 4 5 6 4 3 2 3 3 1 4 5 4 3 2 4 5 4 9 14 14 10 6 7 4 3 1 2 2 3 5 7 9 10 10 11 12 11 10 9 9 9 8 8 9 11 13 14 15 16 16 15 15 15 15 15 14 14 14 14 15 15 16 17 18 19 21 23 24 26 28 29 30 31 32 31
3 4 3 4 3 8 8 6 8 6 4 5 4 6 5 5 5 4 3 3 4 3 3 3 2 3 2 3 6 9 12 13 12 9 5 2 2 1 2 6 8 10 12 12 12 12 12 12 11 12 13 13 12 13 14 14 15 16 16 16 15 15 15 14 13 12 11 11 11 11 11 12 13 14 15 16 18 19 21 22 24 26 28 29 29 29
4 5 6 4 4 11 10 6 8 7 1 3 3 5 3 5 5 3 3 5 4 1 3 2 3 5 4 6 8 9 12 14 16 15 10 7 3 1 3 8 9 10 12 12 11 11 12 14 15 16 17 17 17 19 21 20 18 17 17 16 15 14 14 13 11 9 9 8 8 8 8 9 11 12 13 14 16 18 19 20 22 24 26 27 28 28
3 4 5 0 1 6 7 5 5 4 2 2 2 4 5 5 7 4 3 0 3 2 4 2 5 5 3 7 9 8 8 9 13 15 14 13 7 3 6 9 9 11 11 9 9 8 9 13 17 19 21 21 22 24 25 22 19 18 17 16 15 14 14 12 10 8 8 7 6 6 7 9 10 11 13 14 15 17 18 20 21 22 24 26 27 28
5 2 4 1 2 4 2 2 2 2 3 5 3 6 3 2 4 4 1 3 2 3 4 2 6 5 3 5 6 4 3 7 9 8 10 12 7 5 7 8 11 12 9 8 9 9 9 9 13 16 19 21 22 23 21 17 17 18 18 18 16 15 13 11 10 9 8 7 6 6 7 8 10 12 14 15 16 17 19 20 20 21 22 23 25 27
5 2 4 1 2 4 3 3 1 4 3 5 4 3 4 2 1 1 2 2 1 3 5 4 5 4 5 6 3 4 6 9 9 8 8 6 7 8 7 10 15 13 9 10 12 13 13 13 12 12 14 16 16 17 17 16 18 19 19 19 17 15 14 13 12 11 10 8 6 6 7 8 10 11 13 16 17 19 20 20 20 20 21 22 24 26
3 3 4 2 1 2 4 1 5 1 2 2 2 1 2 3 4 3 3 3 3 3 4 4 3 4 6 5 5 8 10 10 9 6 1 4 7 9 11 15 19 16 11 14 17 18 20 21 20 16 13 14 15 16 17 18 20 21 21 20 18 17 16 15 14 12 11 9 8 8 8 9 10 12 14 16 17 19 21 21 21 20 21 21 22 24
2 3 4 3 3 0 1 3 7 7 4 3 3 3 1 1 2 2 2 2 4 4 3 4 5 7 5 5 7 8 7 7 6 4 4 2 8 12 15 18 20 18 17 19 23 25 25 27 27 20 15 15 15 17 19 20 21 21 22 21 20 18 18 17 15 13 12 10 11 11 11 12 13 14 16 17 18 19 21 22 22 21 21 22 23 23
2 2 4 2 1 3 6 6 6 10 9 6 6 7 6 5 4 2 3 2 2 4 4 3 6 10 6 4 5 6 6 6 4 3 3 8 15 18 20 22 21 20 21 22 25 26 25 28 29 23 16 15 16 15 17 19 22 23 23 22 21 19 19 19 17 16 14 13 14 14 13 14 15 17 18 19 19 20 21 23 23 22 23 24 24 24
4 4 4 3 4 5 7 6 3 6 4 3 4 5 4 4 5 6 5 4 1 3 3 3 5 12 4 7 7 7 6 2 5 9 10 13 18 20 21 21 20 20 22 22 23 24 24 27 29 24 17 16 17 17 18 18 20 24 25 23 21 21 22 21 20 19 18 17 17 16 15 16 17 18 19 20 21 21 22 24 24 24 24 25 25 25
4 3 3 2 3 3 4 5 4 2 2 1 3 3 3 3 4 5 5 4 2 4 3 2 6 12 3 7 5 3 3 6 8 11 12 14 15 16 16 17 19 21 21 21 21 22 23 27 28 25 21 20 20 21 24 25 24 24 26 26 25 24 24 24 23 23 22 20 19 20 19 18 18 19 20 21 22 23 24 25 26 26 26 26 26 26
5 2 4 3 1 3 4 4 4 4 1 2 3 3 5 6 5 3 2 2 1 5 6 5 7 11 4 5 4 2 4 6 9 10 11 12 12 14 16 17 17 18 19 20 21 22 23 26 27 24 21 22 23 24 27 32 33 31 28 28 29 28 27 27 27 26 25 22 22 23 23 21 20 21 21 21 22 24 25 27 28 29 28 27 27 27
6 2 4 5 5 5 3 3 4 3 1 2 3 5 6 7 9 5 2 3 5 7 7 6 8 12 12 4 3 1 4 7 6 9 12 14 15 16 15 14 16 19 22 23 23 23 24 25 24 22 21 22 25 27 30 34 38 38 36 32 31 31 30 30 30 30 28 26 26 26 26 25 23 22 22 22 23 24 26 28 29 30 30 29 28 27
3 1 3 5 6 7 6 5 4 3 4 3 4 5 5 5 8 7 4 5 8 7 6 9 10 15 21 17 10 7 1 5 2 9 12 14 14 14 16 20 24 25 25 26 26 26 26 24 22 23 25 28 29 32 36 37 38 41 43 40 35 35 35 33 33 33 32 31 31 30 29 28 27 25 23 24 24 25 28 30 31 32 32 31 29 29
4 1 2 3 4 6 5 4 3 5 3 4 3 2 1 1 4 6 6 9 7 5 9 12 10 13 21 21 18 11 1 3 6 9 9 12 14 19 23 27 29 28 27 28 28 29 27 25 25 28 31 33 34 35 38 38 38 41 44 44 39 38 38 37 37 38 37 36 35 34 31 30 29 27 26 26 26 27 29 31 33 33 33 32 31 30
4 2 3 1 4 5 4 5 3 4 3 3 3 3 3 3 5 7 11 11 6 6 11 10 7 10 16 19 19 12 2 3 10 13 15 17 19 23 26 28 29 30 30 30 29 28 29 29 31 33 33 34 35 36 36 37 37 38 40 42 41 39 38 38 39 41 41 41 40 37 33 32 31 29 27 27 28 30 32 33 35 35 34 34 32 31
4 3 4 3 5 8 8 8 5 4 4 4 5 5 4 5 8 9 11 11 7 8 11 12 11 13 15 15 17 20 16 13 15 20 24 24 22 22 24 25 27 29 31 32 31 29 29 31 32 32 33 35 36 36 36 36 35 35 37 39 40 41 41 41 43 45 45 45 45 40 36 35 34 31 29 29 30 32 34 35 36 36 36 35 33 31
3 4 4 5 4 10 12 11 8 6 7 7 6 6 6 9 11 11 10 8 6 8 11 12 13 15 15 10 13 28 30 18 14 21 27 29 26 20 19 23 27 30 32 32 31 30 29 30 31 32 34 35 35 35 35 34 33 34 35 37 38 40 41 42 45 46 46 46 45 44 42 39 36 33 31 31 32 34 36 37 38 38 37 36 33 31
3 3 2 5 4 8 10 10 8 4 2 5 9 12 14 14 13 14 11 7 8 11 12 11 9 12 12 5 8 23 27 19 18 24 28 32 27 18 16 22 27 32 34 33 34 34 33 33 33 34 34 35 35 34 34 33 32 32 32 33 35 36 38 41 43 45 45 43 42 43 44 43 42 39 34 33 34 36 37 38 39 39 39 38 34 31
5 4 3 5 5 7 5 5 5 4 3 5 12 15 17 16 16 15 13 12 14 13 10 9 9 11 11 7 8 16 19 20 24 27 29 31 24 16 18 26 30 32 33 34 34 34 33 33 33 33 34 34 33 32 31 30 30 31 30 31 33 34 36 38 40 42 43 42 40 41 42 44 47 43 37 35 36 37 38 39 39 39 39 37 33 30
5 5 4 5 4 6 3 7 6 3 5 9 8 8 13 16 17 16 16 19 18 12 8 9 10 11 11 11 13 15 18 23 28 34 34 27 18 17 21 26 27 25 24 26 28 29 30 30 30 30 31 31 31 29 28 28 29 29 29 30 32 33 34 34 36 39 40 40 41 41 41 42 45 43 40 38 38 39 39 39 39 39 38 36 32 30
5 5 3 3 3 3 3 6 4 6 8 7 2 5 11 14 15 16 17 18 15 11 10 11 13 15 17 21 22 21 23 24 28 35 30 14 10 14 22 25 25 25 25 27 28 29 29 30 31 32 32 32 32 32 31 31 30 28 28 30 31 33 33 31 32 34 36 38 39 39 38 39 41 42 41 40 39 39 40 39 39 38 36 34 31 29
5 4 2 2 3 3 3 5 6 4 2 6 7 5 5 4 6 9 11 12 12 11 12 13 15 16 18 21 20 19 20 22 24 24 12 9 11 21 28 29 29 29 30 30 30 30 31 31 33 34 35 35 35 34 34 33 30 29 30 31 33 34 33 31 31 31 33 35 36 35 34 35 37 39 41 41 40 39 40 39 38 35 33 32 30 28
6 4 2 1 3 3 3 4 3 3 6 9 10 5 3 3 5 6 6 8 5 3 5 8 9 9 10 11 14 18 20 19 17 10 5 10 21 29 31 31 31 30 31 31 31 32 32 32 33 35 36 37 36 35 35 34 33 32 33 34 35 35 34 32 32 31 31 33 33 33 34 35 37 39 40 40 39 39 38 37 35 32 30 29 28 27
7 6 4 3 3 3 3 5 3 2 7 10 10 4 4 8 9 9 6 5 2 6 5 2 1 4 6 8 15 19 17 11 7 5 10 22 31 33 33 34 32 32 32 33 33 34 34 35 36 36 37 39 39 37 36 36 37 36 35 35 35 35 34 34 34 32 31 31 32 32 33 35 36 37 37 37 37 36 34 33 31 29 28 27 26 25
9 6 5 4 4 3 4 5 5 5 7 8 8 3 3 7 8 9 5 4 1 2 5 5 3 4 4 5 10 13 10 5 4 11 21 30 33 34 35 36 34 34 34 34 34 35 35 36 37 38 39 40 40 40 39 39 39 39 38 36 35 34 34 34 34 32 31 30 30 31 31 32 33 34 34 34 33 30 29 28 28 27 26 25 24 23
8 5 5 6 7 7 6 5 5 5 5 6 6 4 1 2 5 5 3 3 4 2 2 4 4 6 3 4 7 6 3 2 8 18 28 31 30 32 34 34 35 36 35 35 35 34 34 35 36 38 39 39 41 41 41 41 41 40 39 36 34 34 33 33 33 32 31 31 30 31 31 31 32 32 31 30 27 26 27 27 27 26 25 24 23 22
5 5 6 7 8 9 10 7 5 5 6 6 6 7 6 0 3 2 5 3 4 3 2 2 4 6 4 4 6 4 7 11 17 26 31 30 30 32 33 33 35 35 34 35 35 35 36 36 36 37 38 38 39 40 40 41 41 41 39 36 35 34 32 32 33 32 31 30 30 30 31 30 30 28 27 26 25 25 26 26 25 24 23 22 22 22
5 3 4 7 8 8 8 7 6 5 5 4 2 2 4 4 3 4 2 3 2 1 2 2 2 3 3 5 9 12 17 22 25 28 31 31 31 32 33 34 36 36 35 35 35 36 38 39 38 39 38 38 39 39 38 38 39 39 37 35 34 33 32 32 33 31 29 28 28 28 28 27 27 26 25 26 26 25 25 24 23 22 21 21 21 21
6 4 3 6 7 5 5 6 7 6 3 0 1 2 3 3 3 3 4 3 3 5 5 2 2 3 5 9 13 17 22 26 28 30 32 33 32 32 32 33 35 36 37 36 36 36 38 39 40 40 39 39 39 40 38 37 37 36 35 34 33 32 32 33 32 29 28 27 27 27 26 26 26 25 25 25 24 23 23 22 21 21 20 20 19 20
4 5 4 4 4 4 5 6 4 4 3 5 4 3 2 2 2 4 4 3 3 8 9 7 7 8 9 11 15 20 24 28 30 31 32 33 33 33 33 33 33 35 36 36 36 36 36 38 39 39 39 38 38 39 39 37 36 35 34 32 31 31 32 32 31 29 28 27 27 26 25 25 25 24 23 22 22 21 20 20 20 20 20 19 19 19
5 5 4 4 4 3 4 4 3 6 7 8 8 5 4 3 3 4 5 3 3 8 10 11 13 13 12 13 17 21 25 28 29 31 32 33 33 33 33 34 34 34 35 36 36 35 36 37 38 38 38 37 36 38 38 37 35 35 33 31 30 30 31 31 30 29 28 26 26 25 24 23 23 21 20 19 18 18 18 19 20 20 20 19 19 19
3 2 2 1 4 4 3 4 6 8 8 7 5 3 2 1 2 5 6 2 5 9 11 13 16 15 14 15 18 22 25 27 29 31 32 32 33 33 33 34 34 34 35 35 35 35 36 38 38 38 37 36 35 35 36 35 34 32 31 30 30 30 30 30 29 28 27 26 24 23 22 21 20 19 18 17 17 16 17 17 18 19 19 19 19 19
2 2 2 1 3 4 3 2 6 7 4 3 7 5 2 3 2 0 2 6 9 10 11 13 16 18 19 20 21 22 24 26 29 32 33 34 34 34 34 35 35 34 34 35 35 35 36 37 38 38 37 36 35 35 36 35 33 31 30 29 29 29 29 29 29 27 26 24 22 21 20 19 18 17 17 17 17 17 17 17 17 17 18 17 17 18
2 4 4 2 3 4 3 3 3 2 1 4 3 1 3 7 9 7 6 7 8 9 12 14 16 20 22 22 21 20 23 27 30 33 34 35 35 35 36 36 36 35 35 34 34 35 36 37 37 37 37 36 35 35 35 34 32 30 29 28 27 28 28 27 26 25 23 22 20 19 18 17 16 17 17 18 17 17 17 17 17 16 15 14 14 14
3 4 3 3 1 1 4 6 5 3 2 1 2 3 11 17 15 9 6 6 7 9 12 15 17 18 18 19 21 23 26 29 32 32 33 35 35 36 36 37 37 36 35 34 34 34 35 36 36 36 36 36 34 34 35 35 32 29 27 26 26 25 25 24 23 22 21 19 19 18 17 17 17 17 17 18 18 17 16 16 15 15 14 13 13 12
4 4 3 4 2 3 4 4 1 1 1 5 9 13 17 17 12 10 10 10 10 11 14 17 18 18 18 20 25 28 28 29 30 29 30 32 33 34 36 36 37 38 36 35 35 35 35 34 33 34 35 35 34 34 34 34 32 28 26 25 24 24 23 21 20 20 20 19 18 18 18 17 17 17 17 17 17 18 17 17 16 15 13 13 14 13
6 5 5 5 3 4 5 5 3 2 5 11 15 15 13 11 12 13 13 13 14 14 16 18 20 22 24 26 28 29 28 29 30 28 29 31 33 33 34 34 35 36 37 36 36 36 36 34 32 32 33 33 33 32 32 33 31 27 24 23 23 22 21 19 18 19 19 19 18 18 17 16 16 17 17 17 17 18 18 18 18 17 14 12 13 13
Wind_Direction
130 92 136 187 194 208 213 183 176 181 144 131 125 106 146 145 314 285 276 311 6 107 253 248 257 269 266 268 272 274 274 259 250 249 249 251 252 252 249 247 247 248 255 262 260 257 257 258 259 256 252 245 240 238 237 237 238 238 238 238 239 239 239 239 238 238 236 236 237 239 241 244 247 249 250 251 250 247 246 247 247 246 246 241 236 234
96 108 208 216 202 195 210 185 145 112 87 90 101 78 32 113 211 268 271 302 1 71 271 299 305 279 268 264 271 273 272 257 247 242 245 249 249 250 250 251 252 254 258 261 259 257 255 254 253 252 250 245 242 239 237 238 238 236 235 236 238 240 240 241 241 240 240 240 240 243 246 248 248 249 252 254 255 254 251 248 247 247 247 246 241 238
67 197 236 232 204 149 101 103 105 91 82 77 94 90 20 280 199 295 316 306 15 104 274 335 332 284 271 258 261 261 252 251 252 246 247 250 250 251 252 254 256 256 258 259 259 258 255 253 250 247 247 247 247 244 240 239 236 233 232 235 238 240 242 244 245 245 245 245 244 245 248 249 249 251 253 254 256 256 255 253 250 248 248 249 247 243
119 239 248 235 185 120 71 67 86 76 77 81 97 108 258 266 170 279 298 295 300 137 270 336 319 283 283 273 257 258 254 258 262 257 253 254 253 255 257 259 259 259 260 261 261 259 255 251 247 245 245 246 246 243 240 237 234 233 235 239 242 244 246 245 245 246 247 247 246 246 247 247 248 250 250 251 251 251 252 253 252 251 250 249 249 247
206 255 274 204 132 119 109 74 86 93 43 330 131 137 200 243 152 195 280 318 339 356 4 10 325 290 301 318 285 277 269 264 270 264 253 252 253 256 260 261 261 261 262 263 264 260 254 250 247 246 246 245 244 245 244 242 241 241 243 245 248 249 248 246 244 245 245 245 245 244 244 244 244 244 244 244 246 247 248 251 252 252 252 251 251 250
232 278 330 135 100 94 110 114 138 137 119 314 233 172 186 167 138 128 22 26 28 343 325 41 359 291 304 316 288 299 309 283 287 278 250 252 255 254 256 258 259 260 261 261 261 258 255 252 249 247 245 244 244 246 249 250 249 249 250 250 250 251 249 247 245 244 244 245 245 244 244 244 244 244 245 246 248 249 251 254 255 255 255 253 253 254
233 331 61 129 122 82 87 111 222 140 112 290 252 193 163 129 118 117 73 50 58 270 288 69 93 272 301 296 257 273 310 302 305 301 270 263 258 254 256 256 258 261 263 263 262 258 255 251 247 246 246 247 248 250 251 250 249 249 249 248 248 248 248 247 246 245 245 245 246 246 247 248 249 250 252 254 255 255 255 257 257 258 258 257 255 255
156 79 54 79 89 80 97 148 244 130 116 219 243 160 114 102 119 135 107 105 219 249 321 13 109 222 292 278 240 292 325 312 302 296 286 270 258 256 257 258 261 266 268 267 265 262 257 251 248 247 250 253 254 254 250 248 248 247 246 245 244 244 245 245 245 246 247 247 248 249 250 251 252 254 257 258 258 257 257 256 257 258 258 258 257 256
89 155 161 110 86 83 160 217 253 118 111 233 228 143 113 116 129 119 102 103 356 26 320 314 104 174 274 274 304 355 320 297 287 278 275 272 267 264 263 263 266 268 266 263 261 260 255 250 249 250 252 255 255 252 249 248 248 246 243 241 240 242 244 245 246 247 249 251 252 253 254 255 257 258 258 258 258 258 256 256 256 257 258 259 258 256
4 172 190 135 120 175 196 256 275 129 129 202 172 87 65 72 79 77 97 103 41 31 256 255 197 183 267 277 300 349 294 263 272 273 269 277 279 275 272 262 255 255 256 258 257 250 248 246 245 247 248 248 248 245 244 243 241 240 238 238 240 243 246 248 250 252 253 254 255 257 258 260 261 260 260 259 259 259 258 258 258 258 260 260 259 258
341 68 101 106 139 173 152 78 24 88 126 124 92 57 40 26 33 42 59 81 59 291 251 237 205 185 265 281 255 228 230 225 251 283 285 299 349 124 159 201 218 245 252 259 266 245 240 237 229 229 230 230 231 229 230 231 231 233 235 239 243 245 248 251 253 255 256 258 259 261 263 264 264 264 263 262 263 263 263 263 262 262 262 262 260 259
347 33 345 59 109 127 110 61 24 39 84 95 79 76 59 355 12 18 1 48 93 256 261 260 223 178 230 264 248 250 264 242 244 275 272 255 133 122 128 153 198 246 260 276 289 260 240 233 223 208 202 206 210 218 231 239 240 241 241 243 245 246 249 252 255 257 258 260 262 264 266 267 268 267 266 267 268 268 267 267 267 265 264 262 260 258
334 285 265 48 68 146 109 67 19 3 30 72 91 98 86 348 10 1 310 207 227 245 262 293 304 205 232 248 254 265 269 256 259 291 267 231 170 123 122 145 235 292 298 299 294 273 249 236 226 211 208 213 218 235 255 260 259 257 253 251 251 252 253 254 256 258 259 262 264 266 267 268 268 268 268 270 271 271 271 270 270 268 267 265 263 259
294 307 310 73 304 209 151 122 130 293 174 136 136 132 132 137 136 258 257 267 268 256 271 307 299 265 276 265 236 246 261 269 302 316 277 224 168 92 69 357 331 325 317 306 295 278 255 237 228 225 228 232 243 259 267 270 268 263 260 258 257 257 254 254 255 257 260 263 264 264 266 268 269 271 273 274 275 274 274 272 272 272 271 271 270 265
193 292 225 178 203 189 180 179 165 152 167 185 155 136 153 161 165 201 207 212 247 269 291 295 259 209 224 276 239 242 266 276 291 299 275 263 297 332 13 346 331 327 322 311 299 282 259 243 240 245 247 251 263 270 273 278 276 268 264 262 259 257 253 250 249 252 255 256 259 262 266 271 272 274 277 279 280 279 278 277 276 275 274 274 275 272
173 251 234 209 177 171 180 196 159 122 123 231 138 117 179 190 154 151 192 184 178 295 295 247 236 213 213 277 276 267 271 277 292 297 290 288 284 155 338 335 336 337 334 321 308 293 269 255 253 256 258 261 267 273 277 282 278 269 265 261 255 250 246 243 239 240 246 247 252 259 264 271 275 278 282 284 285 284 282 282 279 278 278 277 276 274
158 273 276 286 170 181 180 182 156 139 190 202 142 180 215 180 128 126 257 348 93 251 270 211 251 284 318 292 279 271 273 292 307 301 287 280 269 260 317 348 359 348 343 336 329 321 290 269 266 266 268 270 274 279 282 280 270 264 261 255 247 241 236 233 227 226 230 232 242 256 267 277 283 290 293 292 290 288 285 283 281 281 281 279 278 275
155 240 303 97 200 249 215 143 92 54 125 134 182 214 204 92 89 111 221 347 35 250 275 244 245 281 312 277 299 351 331 300 301 295 285 290 307 332 340 3 357 342 349 2 4 360 340 307 289 283 281 282 282 284 283 270 258 257 254 245 237 234 231 226 221 219 223 229 244 266 282 294 298 298 296 294 291 288 285 284 284 284 283 282 279 276
143 190 297 41 191 281 360 127 172 2 68 136 180 186 121 120 237 117 162 200 184 246 279 275 259 256 217 228 292 324 293 287 288 286 288 320 28 22 357 358 355 354 6 13 10 1 352 344 329 316 305 296 290 285 277 264 255 250 245 239 233 229 223 219 221 222 226 235 252 274 289 294 295 293 291 291 289 287 286 286 284 283 284 282 279 276
138 173 262 322 261 300 16 151 194 267 353 59 94 114 100 138 173 170 170 168 163 207 261 277 287 257 224 198 189 222 248 261 269 280 299 65 39 3 353 1 1 1 1 358 357 353 350 345 336 330 321 309 298 287 278 266 256 249 242 237 230 226 222 220 223 227 232 240 252 266 275 276 276 278 280 282 284 286 287 284 281 280 282 282 279 277
119 175 226 300 335 190 181 215 184 170 173 165 158 186 198 93 111 183 194 137 143 171 216 257 273 264 236 191 185 204 228 224 204 160 128 21 351 356 5 3 356 353 348 344 343 343 341 333 327 325 323 318 308 295 284 270 258 249 241 235 229 226 227 228 230 234 238 244 251 258 263 265 266 269 272 275 279 284 286 284 280 279 278 279 280 278
182 176 170 187 307 195 226 242 198 183 185 177 179 191 187 162 130 156 241 253 147 179 183 182 269 272 238 179 188 181 164 157 133 78 1 350 357 1 357 352 350 347 340 334 330 329 327 320 317 319 321 324 325 316 301 281 265 253 243 237 232 230 233 236 238 240 243 245 250 257 260 261 263 266 269 273 276 281 284 283 282 279 275 275 278 280
158 115 118 179 216 213 242 265 214 191 191 172 191 188 171 162 144 155 212 241 204 231 210 136 264 272 233 141 154 161 158 119 26 12 3 1 357 353 350 348 345 335 326 322 318 317 320 316 314 315 319 323 329 333 326 308 283 265 252 242 238 237 239 243 243 242 243 243 248 256 260 262 266 267 269 272 276 279 282 282 281 278 274 273 275 278
142 116 129 222 301 315 308 328 3 36 93 164 226 174 138 180 171 154 179 183 163 223 218 144 250 266 237 141 168 215 289 337 17 21 4 353 350 351 346 334 323 316 314 315 315 317 319 314 309 311 318 324 328 332 331 325 310 286 263 249 245 245 244 246 249 247 245 245 249 254 257 262 268 269 271 275 277 279 280 280 280 278 276 273 272 274
178 172 137 135 349 335 336 340 337 344 14 206 233 197 182 179 151 132 159 151 210 219 187 171 240 261 254 133 119 19 360 14 21 7 344 337 335 326 318 315 315 316 317 318 318 319 318 311 305 306 312 318 321 323 321 318 313 305 286 263 252 250 249 249 251 252 251 250 252 254 255 259 264 269 274 278 279 279 279 279 278 277 276 273 271 272
167 174 150 157 193 217 220 211 223 251 202 210 235 208 196 172 155 163 168 170 229 226 193 193 237 261 267 231 156 32 57 57 13 324 312 311 310 307 312 322 324 323 322 319 316 313 308 302 297 294 296 301 304 307 307 305 304 303 299 283 263 254 254 253 253 256 256 254 252 254 256 258 260 266 273 277 279 279 279 278 276 275 274 272 270 270
121 156 170 166 195 204 195 199 194 145 141 196 240 224 213 185 172 165 145 186 218 224 222 228 231 254 267 263 252 257 96 93 268 280 292 299 305 310 316 316 314 312 312 310 306 300 293 287 282 284 289 292 295 298 299 299 297 296 297 294 280 263 257 257 258 258 257 255 253 253 256 259 260 264 270 275 277 278 278 277 276 275 274 272 270 268
95 260 207 147 192 198 182 190 137 100 145 198 204 221 253 221 183 178 201 212 197 196 238 239 220 240 264 270 269 270 186 140 243 262 278 290 299 303 303 303 302 302 302 300 296 291 288 285 283 286 290 293 294 295 295 295 295 294 294 296 293 278 266 263 262 261 259 257 255 254 256 260 262 263 267 272 275 276 277 276 275 274 273 272 269 267
109 241 255 165 237 232 214 221 167 128 183 196 184 213 213 197 192 202 230 233 189 197 246 250 213 227 257 269 274 279 277 228 269 283 287 285 286 289 294 297 297 298 298 295 293 292 291 291 292 293 295 296 295 294 294 293 293 293 292 295 297 292 283 277 274 272 269 263 258 256 257 261 263 264 267 271 274 276 277 275 274 274 273 272 269 267
132 218 228 194 257 265 253 248 236 201 211 210 219 234 222 220 218 213 232 244 231 237 260 266 259 253 255 267 282 290 289 281 284 290 287 282 281 285 291 294 295 295 296 297 298 297 295 295 296 297 297 298 298 297 298 296 293 291 291 292 294 294 293 290 287 286 283 275 267 261 259 261 262 264 267 272 276 277 277 275 273 273 273 272 269 266
171 210 194 154 222 263 255 250 249 238 235 235 240 249 249 253 251 241 237 240 245 255 258 263 272 270 263 264 282 286 288 291 288 284 283 284 287 290 293 294 296 297 298 302 305 303 301 300 300 302 303 305 308 308 307 304 298 294 293 292 291 291 291 290 288 287 287 285 278 268 261 261 263 264 268 273 277 278 277 275 273 272 272 272 268 265
174 183 140 132 189 246 246 236 231 215 226 252 250 242 237 240 247 248 242 224 221 237 249 259 266 268 269 259 260 279 287 291 284 281 283 287 291 299 304 300 299 300 302 306 307 306 307 309 310 313 315 316 317 318 316 313 308 303 299 297 294 292 289 287 286 285 285 287 285 276 267 265 265 266 268 273 277 277 276 274 272 270 270 270 268 265
158 152 150 153 195 242 231 184 174 130 113 238 243 235 229 230 236 241 246 241 228 224 233 246 248 259 279 288 273 278 285 285 285 285 284 289 299 315 309 298 297 302 307 312 313 315 318 320 322 323 322 322 322 321 320 317 313 308 305 302 300 296 291 286 285 285 285 285 286 282 275 271 267 265 267 273 275 275 275 273 270 269 268 269 268 265
153 150 169 163 187 244 208 126 123 151 211 238 239 206 209 224 230 233 240 243 239 234 235 250 263 273 279 275 269 270 274 280 285 286 289 300 317 319 310 308 311 318 325 327 327 329 330 329 328 325 323 324 324 322 320 317 313 308 304 303 302 299 295 290 285 285 285 285 284 282 279 274 267 264 266 272 274 273 273 271 268 267 267 267 265 262
145 153 176 174 183 216 132 121 171 216 221 245 271 166 196 218 222 226 237 244 245 248 249 254 262 262 260 264 268 275 283 289 290 292 302 333 3 336 333 338 338 336 336 334 333 332 331 330 327 324 323 322 322 322 320 317 313 308 304 303 303 301 298 293 287 285 285 284 283 281 277 273 268 265 266 270 272 272 270 268 267 267 266 265 264 262
152 161 164 174 196 186 141 173 214 239 292 296 286 246 217 222 214 225 249 256 245 237 237 242 249 254 263 273 284 298 308 308 300 299 321 40 13 344 345 346 343 338 333 333 334 331 330 329 326 324 323 322 322 324 324 323 320 314 311 312 310 305 301 295 289 285 282 282 281 279 275 272 269 267 268 270 270 268 265 266 267 267 265 263 261 258
162 161 133 178 205 189 207 221 232 329 313 280 265 244 155 155 172 183 233 260 257 246 241 239 249 272 293 308 328 339 335 323 309 307 39 18 339 336 340 339 340 339 333 331 331 328 327 325 322 320 319 319 320 322 324 324 323 320 319 319 314 307 302 297 293 288 283 279 278 277 274 271 269 268 268 267 265 263 263 265 267 266 264 261 258 254
177 177 158 192 211 178 218 247 251 259 254 253 256 244 205 222 204 166 188 247 355 30 35 95 164 313 324 336 349 354 353 341 306 299 349 343 334 332 334 334 336 336 333 331 329 325 323 320 318 315 315 314 315 318 319 319 319 319 320 320 316 306 300 299 297 294 288 281 277 274 272 269 266 265 264 263 261 261 262 264 264 263 261 258 255 251
190 188 159 191 222 199 203 231 233 232 242 251 254 241 222 230 193 151 171 235 229 15 32 65 41 323 309 327 349 4 11 2 285 299 327 335 333 331 332 333 333 333 332 331 329 327 323 320 318 314 312 311 311 313 315 315 315 315 316 318 314 304 298 298 300 297 290 284 278 273 269 266 265 264 263 262 262 261 260 260 259 258 255 253 250 245
192 185 179 204 221 220 221 234 238 240 249 246 232 219 212 83 106 130 214 227 188 202 41 50 347 327 315 329 360 29 45 311 289 307 325 333 332 328 329 331 331 331 331 331 331 331 328 325 322 319 316 314 311 309 310 310 310 310 311 313 310 303 297 298 299 295 288 282 277 273 270 268 267 266 264 263 261 258 256 254 252 250 247 244 242 238
194 186 194 204 216 222 224 235 249 250 249 247 245 243 239 167 64 227 232 187 162 181 138 95 346 339 325 331 353 338 301 306 307 312 324 332 330 326 325 326 326 326 327 328 329 331 329 326 325 325 323 322 317 311 309 308 306 306 307 307 304 301 297 295 294 291 287 283 278 274 272 269 266 264 261 258 255 252 249 247 245 243 241 238 235 232
186 191 198 198 212 225 223 229 251 261 250 239 245 212 174 165 209 228 182 77 70 102 113 121 67 27 338 322 326 313 313 320 321 322 327 330 329 328 325 324 323 320 320 320 321 325 326 323 323 324 325 326 325 320 315 310 306 305 305 302 300 298 294 291 291 289 286 282 278 274 271 267 263 259 256 253 249 245 242 240 237 235 232 231 228 224
176 176 201 197 201 213 213 222 236 244 243 113 88 129 141 161 203 171 121 96 32 22 23 25 35 14 330 319 323 322 323 325 326 328 329 327 328 328 325 324 323 321 320 320 320 322 323 320 320 320 321 324 326 325 323 317 309 305 303 299 297 294 290 290 291 288 284 280 277 273 269 264 260 256 252 249 244 240 237 233 230 227 224 222 219 216
186 176 194 205 195 186 201 218 220 193 138 78 82 132 144 140 153 135 128 126 42 10 353 341 342 341 329 325 325 325 325 326 327 329 328 327 326 325 323 322 321 319 319 320 320 321 321 319 318 318 318 320 322 324 324 321 314 308 303 299 296 292 290 290 289 286 283 279 275 271 266 262 257 252 248 244 239 234 230 225 223 221 217 213 211 211
221 187 171 195 203 186 192 201 167 136 122 98 87 96 103 112 159 167 160 135 32 353 336 329 330 332 332 328 324 323 323 325 326 326 327 327 326 325 323 321 319 318 318 318 319 320 319 318 318 318 319 320 321 321 321 320 316 311 306 302 298 293 290 289 286 283 281 276 272 267 262 257 253 247 242 237 233 230 225 220 216 213 210 208 207 209
240 172 110 175 230 248 246 195 162 146 132 107 69 45 75 130 177 175 175 196 332 331 326 324 324 327 330 325 320 320 321 323 325 325 326 327 325 324 323 320 318 317 316 316 317 318 316 315 316 316 318 320 321 319 316 315 313 310 307 303 298 294 290 287 284 281 277 272 266 261 256 251 245 239 232 226 222 220 218 216 213 208 205 204 204 206
267 162 126 149 223 232 249 179 150 146 131 18 351 353 72 80 50 144 261 300 315 319 321 324 324 324 323 321 318 318 319 322 324 323 323 323 322 321 321 320 319 318 317 315 316 316 314 313 313 314 315 317 320 319 314 310 307 305 304 301 296 293 289 284 281 277 272 267 260 254 248 243 235 230 224 218 213 208 205 205 205 203 202 201 202 204
218 164 165 210 213 204 220 229 186 163 330 335 336 35 42 2 346 335 326 321 322 322 322 323 322 318 317 319 321 322 322 321 322 322 320 318 317 317 318 319 319 318 316 315 315 314 313 312 312 312 313 315 317 318 314 309 304 302 300 298 294 289 285 281 277 272 266 260 253 245 239 232 225 222 218 211 206 202 199 196 195 194 195 197 201 203
150 159 182 175 166 274 280 276 286 327 342 264 195 295 325 331 334 340 350 344 332 323 316 312 311 312 313 316 320 323 322 319 319 320 318 315 314 315 316 317 317 316 314 313 313 313 312 311 311 311 311 312 314 315 314 311 306 301 299 296 291 285 282 277 272 266 259 252 245 236 228 220 215 213 210 205 199 194 191 188 187 185 186 189 192 196
146 187 198 126 114 272 251 229 237 38 253 267 294 311 318 324 326 327 330 328 322 318 313 308 307 306 305 309 314 319 321 319 319 319 316 314 314 315 315 316 315 313 312 312 311 311 310 310 310 309 309 309 310 311 313 312 308 303 299 293 287 282 277 272 265 259 252 243 235 228 221 213 208 206 206 203 197 190 184 179 178 180 184 189 190 191
179 191 189 151 171 223 203 189 210 227 250 279 301 311 311 310 308 310 316 319 315 312 311 311 312 311 308 309 312 317 319 319 319 319 317 314 313 313 314 314 312 311 311 311 310 309 308 308 308 307 306 307 306 306 309 310 308 304 297 290 285 279 271 262 256 252 246 237 229 223 218 212 206 203 202 201 199 196 189 182 176 173 176 182 184 184